Погода в Кишиневе

Погода в Кишиневе : погода сейчас, прогноз погоды и архив. Всё, что Вы хотите узнать о погоде в Кишиневе!

Хотите узнать прогноз погоды в Кишинёве? Тогда Вам сюда: Погода в Кишинёве

Поиск расширенной информации на нашем сайте:

Другие новости

Новости СМИ2

Главная страница сайта

Новости сайта

03.07.2017

Напоминаем, что на нашем специализированном сайте Метеоцентр.Азия вы можете получить высокодетализированные автоматические прогнозы погоды по пунктам России, СНГ и мира в авиационном формате (включающие направление и скорость ветра, видимость, явления погоды, количество и форму облачности, нижнюю и верхнюю границу облачности).


Погода в Кишиневе - сегодня

Время (UTC), дата Ветер
(°,м/с) 
Видим.   Явления Облачность Т
(°С)
Тd
(°С)
f(%) Тe
(°С)
Pmin
(гПа)
dP
(гПа)
Po
(мм)
O2
(г/м3)
Тmin Tmax R s Состояние
почвы
12 18.10.17 190 (Ю) 20000 м    3/0 верхняя 
[Ci fib]
+24.1 +8.9 38 +24  1019.1  -2  750  276           
15 18.10.17 200 (Ю) 20000 м    4/0 верхняя 
[Ci fib]
+21.2 +10.1 49 +23  1018  -1.3  749  278           
18 18.10.17 210 (ЮЗ) 20000 м    ясно 
+17.3 +9.7 61 +19  1018.5  0.3  749  282    +24.7       
21 18.10.17 220 (ЮЗ) 20000 м    ясно 
+15.6 +9.7 68 +17  1018.1  -0.5  749  284           
00 19.10.17 210 (ЮЗ) 20000 м    ясно 
+13.7 +9.5 76 +15  1017.7  -0.6  748  285           
03 19.10.17 200 (Ю) 20000 м    ясно 
+11.3 +9.2 87 +12  1016.9  -0.9  747  288           
06 19.10.17 190 (Ю) 20000 м    8/0 средняя, верхняя 
[Ac lent|Ci]
+12.2 +9.2 82 +13  1016.9  747  287  +10.7         
09 19.10.17 220 (ЮЗ) 20000 м    8/0 верхняя 
[Ci sp]
+21 +8.6 45 +21  1016.2  747  278           
12 19.10.17 200 (Ю) 20000 м    9/0 средняя, верхняя 
[Ac trans|Ci]
+24.2 +7.8 35 +24  1014.7  -1.3  746  275           
15 19.10.17 210 (ЮЗ) 20000 м    10/0 средняя, верхняя 
[Ac trans|Ci fib]
+21.6 +6.7 38 +22  1014.5  -0.4  746  278           
18 19.10.17 210 (ЮЗ) 20000 м    5/0 верхняя 
[Ci fib]
+17.7 +7.2 50 +18  1015.2  0.5  746  281    +25.1       
21 19.10.17 тихо ()   20000 м    3/0 верхняя 
[Ci fib]
+14.8 +8.5 66 +15  1015.5  0.1  747  284           
00 20.10.17 200 (Ю) 20000 м    ясно 
+11.7 +9.6 87 +14  1015.9  0.1  747  287           
03 20.10.17 200 (Ю) 10 км    ясно 
+10.1 +9.2 94 +11  1016  747  288           
06 20.10.17 тихо ()   0050 м  туман  ?/?  
+8.6 +7.8 95 +9  1017  0.9  747  291  +8.3         
09 20.10.17 тихо ()   0500 м  туман  ?/?  
+11.3 +10.7 96 +13  1017.4  0.6  748  287           
12 20.10.17 100 (В) 4000 м  дымка{туман}  10/8 600 м средняя 
[Sc|Ac trans]
+13.4 +12 91 +17  1017.2  -0.1  748  285           
15 20.10.17 100 (В) 4000 м  дымка{туман}  6/3 600 м верхняя 
[Sc|Ci fib]
+14.4 +11.6 83 +18  1016.9  -0.3  748  284           
18 20.10.17 060 (СВ) 0500 м  туман  ?/?  
+12.3 +11.5 95 +16  1018.2  0.9  748  286    +14.6       
21 20.10.17 080 (В) 1000 м  дымка{туман}  10/10 600 м 
[Sc]
+12.6 +11.5 93 +17  1018.8  0.7  749  286           
00 21.10.17 110 (В) 4000 м  дымка{туман}  10/10 600 м 
[Sc]
+12.3 +11.2 93 +17  1018.3  -0.6  748  286           
03 21.10.17 тихо ()   2000 м  дымка  10/10 600 м 
[Sc]
+12.3 +11.4 94 +15  1017.8  -0.4  748  286  +12.3         
06 21.10.17 110 (В) 1000 м  дымка  10/10 600 м 
[St]
+12.4 +11.6 95 +16  1017.5  -0.3  748  286  +12.2         
09 21.10.17 160 (Ю) 4000 м  дымка  10/10 600 м 
[Sc]
+14.8 +11.2 79 +18  1017.1  -0.3  748  284           
12 21.10.17 тихо ()   10 км  в посл. час морось  10/10 600 м 
[St]
+15 +11.6 80 +18  1014.8  -2.2  746  283           
Время (UTC), дата Ветер
(°,м/с) 
Видим.   Явления Облачность Т
(°С)
Тd
(°С)
f(%) Тe
(°С)
Pmin
(гПа)
dP
(гПа)
Po
(мм)
O2
(г/м3)
Тmin Tmax R s Состояние
почвы

Для получения пояснительной информации подведите курсор к названию столбца.

ПОГОДА в Кишиневе - архив

Всё, что Вы хотите узнать о погоде в Кишиневе - удобно и подробно!

Выберите нужную дату (начиная с 1 января 2015* года) и нажмите кнопку "Найти".
Будут отображены архивные сводки погоды по пункту Кишинев, начиная с указанной даты.


Отображать данные в формате CSV (для использования в таблицах Excel)


Внимание! Наш архив погоды предназначен исключительно для личного некоммерческого использования в познавательных целях. Если Вам необходимы официальные справки о состоянии погоды (для производственных, юридических, коммерческих и т.п. целей), обращайтесь в органы Росгидромета.

*Примечание: данная дата относится к архиву по метеостанциям СССР (Россия, СНГ, Балтия).
Архив по метеостанциям Зарубежной Европы и Азии (кроме Китая) хранится 10 дней, по другим регионам земного шара (Китай, Африка, Америка, Австралия, Океания) - 1 день.

Кишинев - район местоположения метеостанции


Название, широта, долгота, высота метеостанции:
Кишинев 47°ш. 29°д. 173 м над ур. моря [Молдавия]

Дополнительная информация

В oтличие oт бoльшинства пoгoдных сайтoв мы публикуем пoдрoбную метеoинфoрмацию в детальнoм прoфессиoнальнoм фoрмате.

Характеристики температуры и влажнoсти вoздуха измеряются на высoте 2 м в тени вдали oт зданий и деревьев.
Скoрoсть ветра измеряется на высoте 10 м (на урoвне рoста челoвека скoрoсть ветра ниже в 1.5-2 раза). Если метеoстанция нахoдится в гoрoде или в лесу, тo скoрoсть ветра занижена на 2-4 м/с пo сравнению с oткрытым местoм. Скoрoсть ветра над акватoриями крупных рек и oзёр, а также на вершинах хoлмoв на 2-5 м/с выше, чем в oбычных услoвиях.
Атмoсфернoе давление в разных тoчках местнoсти мoжет значительнo oтличаться oт давления на метеoстанции, в зависимoсти oт услoвий рельефа (при пoдъёме на 10 м давление пoнижается примернo на 1 мм рт.ст.).